[[{"header":{"parameterUnit":"m.s-1","parameterCategory":1,"la1":30.2991,"la2":30.254,"lo1":-89.0895,"lo2":-89.0444,"dy":0.0017,"dx":0.0017,"nx":28,"ny":28,"refTime":"2025-06-20T21:00:00:Z","depth":0,"parameterNumber":2,"parameterNumberName":"U-component_of_WINDS"},"data":[0,0,0,0,0,0,0,0,0,0,0,0,0,0,0,0,0,0,0,0,0,0,0,0,0,0,0,0,0,0,0,0,0,0,0,0,0,0,0,0,0,0,0,0,0,0,0,0,0,0,0,0,0,0,0,0,0,0,2.8145,2.8145,0,2.8076,2.8076,2.8075,2.7946,2.7944,2.7941,2.7939,2.7871,2.7871,2.7872,0,0,0,0,0,0,0,0,0,0,0,0,0,2.8166,2.8167,2.8145,2.8145,2.8144,2.8077,2.8076,2.8075,2.7947,2.7944,2.7941,2.7938,2.787,2.7871,2.7872,0,0,0,0,0,0,0,0,0,0,0,0,0,2.8134,2.8167,2.8146,2.8072,2.8064,2.8077,2.8076,2.8074,2.7947,2.7943,2.794,2.7936,2.787,2.7871,2.7872,2.7951,0,0,2.7874,2.7874,0,0,0,0,0,0,0,0,2.8136,2.8133,2.8083,2.8077,2.8069,2.8016,2.8058,2.8033,2.7948,2.7992,2.7939,2.7934,2.7922,2.7918,2.7914,2.7948,2.7945,2.7874,2.7875,2.7875,2.7875,0,0,0,0,0,0,0,2.8138,2.8135,2.8118,2.8083,2.8074,2.8042,2.8033,2.8053,2.7979,2.7988,2.7978,2.7972,2.7917,2.7913,2.7911,2.7944,2.7874,2.7875,2.7875,2.7876,2.8036,2.804,0,0,0,0,0,0,2.8151,2.8138,2.812,2.8116,2.8093,2.8045,2.8035,2.8037,2.7978,2.7966,2.7975,2.7966,2.7914,2.791,2.7908,2.7994,2.7875,2.7876,2.7876,2.8032,2.8037,2.8041,0,0,0,0,0,0,2.8152,2.8151,2.8123,2.8124,2.8118,2.8048,2.8052,2.8037,2.8033,2.7969,2.7955,2.7984,2.7911,2.7907,2.794,2.799,2.7876,2.7877,2.8028,2.8034,2.8039,2.8169,0,0,0,0,0,0,2.8153,2.8152,2.8181,2.8126,2.8119,2.8157,2.8055,2.8039,2.8034,2.8022,2.7974,2.7962,2.7908,2.794,2.7941,2.7989,2.7877,2.8023,2.8031,2.8037,2.816,2.8178,2.8194,0,0,0,0,0,2.8154,2.8222,2.8183,2.8182,2.8154,2.816,2.8156,2.8091,2.8039,2.8068,2.8026,2.7964,2.7985,2.7945,2.7945,2.7994,2.802,2.8029,2.8037,2.8152,2.8175,2.8194,0,0,0,0,0,0,2.8286,2.8213,2.817,2.8222,2.8198,2.8138,2.8172,2.8118,2.8108,2.8097,2.8018,2.8008,2.8051,2.8026,2.7982,2.8066,2.7992,2.8002,2.808,2.8101,2.8118,2.8121,2.7878,0,0,0,0,0,2.8321,2.8331,2.8268,2.8319,2.8309,2.8244,2.8244,2.8195,2.8168,2.8157,2.8118,2.8094,2.8094,2.8097,2.8094,2.8157,2.8142,2.819,2.8207,2.8222,2.8229,2.8257,2.8276,2.8069,2.8069,2.8069,0,0,2.8394,2.8355,2.8367,2.8345,2.832,2.8332,2.8236,2.8253,2.826,2.816,2.8187,2.8158,2.8126,2.8173,2.8192,2.8153,2.8284,2.8233,2.8245,2.8244,2.8267,2.8287,2.8305,2.8075,2.8074,2.8073,0,0,2.8531,2.8504,2.8542,2.8519,2.8483,2.8439,2.8448,2.8397,2.8372,2.8399,2.8323,2.8331,2.8335,2.8314,2.8304,2.8432,2.8373,2.8434,2.8522,2.855,2.8566,2.858,2.8622,2.8638,2.8442,2.8443,2.8443,0,2.8625,2.8639,2.8569,2.859,2.8581,2.849,2.8527,2.8509,2.8475,2.8471,2.8429,2.8429,2.8402,2.8441,2.8471,2.8468,2.8474,2.8437,2.8569,2.8582,2.8594,2.8633,2.865,2.845,2.8449,2.8448,2.8448,0,2.8755,2.8767,2.8802,2.8769,2.8765,2.8794,2.8728,2.8732,2.8685,2.8645,2.8671,2.8635,2.8621,2.8628,2.8583,2.866,2.8637,2.8584,2.8507,2.8622,2.8657,2.8672,2.846,2.8458,2.8456,2.8454,0,0,2.8972,2.8899,2.8913,2.8895,2.8848,2.8855,2.888,2.8866,2.887,2.885,2.8867,2.8872,2.8821,2.881,2.8761,2.8786,2.8885,2.8729,2.8726,2.8756,2.8963,2.9001,2.9019,2.8847,2.8849,2.8851,2.8964,0,2.9096,2.9133,2.907,2.9121,2.9129,2.9042,2.9063,2.9036,2.9,2.9001,2.896,2.8963,2.8898,2.889,2.8911,2.8868,2.8925,2.886,2.886,2.8861,2.8867,2.9038,2.9079,2.9187,2.8978,2.8981,2.8982,0,2.9245,2.923,2.9282,2.9228,2.9229,2.925,2.923,2.9233,2.92,2.9172,2.9158,2.9101,2.912,2.905,2.9074,2.9031,2.9028,2.9007,2.901,2.9004,2.8926,2.9034,2.9221,2.9236,2.9004,2.9002,2.9001,0,2.9393,2.9386,2.9415,2.9403,2.9344,2.9359,2.9335,2.9299,2.9293,2.9277,2.9272,2.926,2.9252,2.9243,2.9182,2.9137,2.9213,2.9138,2.9188,2.9189,2.9205,2.9204,2.939,2.921,2.921,2.9209,2.9209,0,2.9536,2.957,2.948,2.9497,2.9532,2.946,2.9497,2.9464,2.9432,2.9441,2.9367,2.9377,2.9299,2.93,2.9254,2.9279,2.9277,2.9253,2.924,2.9257,2.926,2.9252,2.9241,2.9213,2.9213,2.9212,2.9211,0,2.9706,2.9648,2.9672,2.9613,2.9599,2.9627,2.9576,2.9589,2.9548,2.956,2.9559,2.9493,2.9491,2.943,2.9416,2.9385,2.9428,2.9403,2.9438,2.9428,2.948,2.9474,2.9663,2.9683,2.9495,2.9497,2.9498,0,2.9799,2.9823,2.9765,2.9765,2.9744,2.9746,2.9739,2.9669,2.9666,2.9629,2.9646,2.9638,2.9626,2.9626,2.9577,2.9565,2.9537,2.9604,2.9534,2.955,2.9533,2.953,2.9531,2.9618,2.962,2.9622,2.9624,0,2.9969,2.9938,2.9931,2.9914,2.9907,2.9891,2.9869,2.9874,2.9797,2.9796,2.9792,2.9783,2.9767,2.9758,2.9737,2.9711,2.9654,2.9646,2.9656,2.9673,2.9691,2.9677,2.9474,2.9641,2.964,2.9638,2.9637,2.9637,3.01,3.0116,3.0077,3.0071,3.0047,3.0028,3.0036,2.9995,2.999,2.997,2.993,2.9931,2.9896,2.9861,2.9841,2.984,2.9806,2.9822,2.9825,2.9829,2.9837,2.9694,2.9837,2.9836,2.9836,2.9835,2.9835,0,3.0262,3.0233,3.0228,3.0199,3.0194,3.0141,3.0114,3.0113,3.0115,3.0087,3.0077,3.0071,3.0061,3.0012,2.9997,3.0006,2.9979,3.0004,3.0,2.9995,2.9871,2.9862,3.0025,3.0025,3.0025,3.0025,3.0025,3.0025,3.0346,3.0368,3.0333,3.0342,3.0312,3.0312,3.03,3.0282,3.0259,3.0255,3.0246,3.0214,3.0176,3.0158,3.0146,3.0132,3.0128,3.0161,3.0138,3.0022,3.0004,2.9986,2.9977,3.0162,3.0162,3.0261,3.0262,3.0262]},{"header":{"parameterUnit":"m.s-1","parameterCategory":1,"la1":30.2991,"la2":30.254,"lo1":-89.0895,"lo2":-89.0444,"dy":0.0017,"dx":0.0017,"nx":28,"ny":28,"refTime":"2025-06-20T21:00:00:Z","depth":0,"parameterNumber":3,"parameterNumberName":"V-component_of_WINDS"},"data":[0,0,0,0,0,0,0,0,0,0,0,0,0,0,0,0,0,0,0,0,0,0,0,0,0,0,0,0,0,0,0,0,0,0,0,0,0,0,0,0,0,0,0,0,0,0,0,0,0,0,0,0,0,0,0,0,0,0,3.9238,3.9239,0,3.9311,3.9312,3.9312,3.9288,3.9287,3.9285,3.9284,3.9353,3.9357,3.936,0,0,0,0,0,0,0,0,0,0,0,0,0,3.9073,3.9076,3.9238,3.9239,3.924,3.9311,3.9312,3.9313,3.9289,3.9287,3.9285,3.9283,3.9352,3.9356,3.936,0,0,0,0,0,0,0,0,0,0,0,0,0,3.9145,3.9077,3.9238,3.9236,3.9237,3.931,3.9312,3.9313,3.9289,3.9287,3.9284,3.9282,3.9351,3.9356,3.9361,3.9438,0,0,3.9376,3.9378,0,0,0,0,0,0,0,0,3.9141,3.9151,3.9236,3.9237,3.9237,3.9288,3.9279,3.9355,3.929,3.9269,3.9284,3.9281,3.9333,3.9339,3.9358,3.9442,3.9445,3.9376,3.9379,3.9381,3.9383,0,0,0,0,0,0,0,3.9136,3.9147,3.9266,3.9237,3.9238,3.923,3.9238,3.9293,3.9313,3.9271,3.9269,3.9278,3.9333,3.9353,3.936,3.9446,3.9376,3.9381,3.9384,3.9386,3.9594,3.9597,0,0,0,0,0,0,3.9131,3.9143,3.9264,3.9269,3.9182,3.9235,3.9244,3.9274,3.9313,3.9316,3.928,3.9277,3.9346,3.9354,3.9362,3.9454,3.9381,3.9386,3.9389,3.9592,3.9595,3.9598,0,0,0,0,0,0,3.9127,3.9142,3.9261,3.9206,3.922,3.9241,3.9275,3.9277,3.9297,3.932,3.9323,3.9298,3.9345,3.9355,3.9419,3.9456,3.9388,3.9393,3.9589,3.9593,3.9596,3.9639,0,0,0,0,0,0,3.9123,3.9141,3.9172,3.9207,3.9223,3.9319,3.9277,3.928,3.9306,3.9303,3.9337,3.934,3.9343,3.9412,3.9424,3.9462,3.9397,3.9586,3.9591,3.9595,3.9635,3.9644,3.9652,0,0,0,0,0,3.9117,3.918,3.9173,3.9188,3.9263,3.9321,3.9331,3.9335,3.9309,3.934,3.9354,3.9339,3.9451,3.9419,3.9433,3.9472,3.9583,3.9589,3.9595,3.9631,3.9642,3.9652,0,0,0,0,0,0,3.9147,3.9185,3.9178,3.9254,3.9285,3.9317,3.9356,3.9347,3.9384,3.9379,3.9381,3.9389,3.9454,3.947,3.9434,3.9548,3.9513,3.9522,3.9536,3.9547,3.9555,3.9549,3.9401,0,0,0,0,0,3.9163,3.9209,3.9239,3.9304,3.932,3.9335,3.9361,3.9361,3.9392,3.9405,3.9424,3.9453,3.9495,3.9522,3.9561,3.9637,3.9643,3.9671,3.968,3.9687,3.9694,3.9733,3.9745,3.9617,3.9617,3.9617,0,0,3.9196,3.9222,3.9251,3.9311,3.9334,3.938,3.9346,3.9396,3.943,3.9412,3.9474,3.9489,3.9522,3.9592,3.9624,3.9607,3.9731,3.9694,3.97,3.9703,3.9741,3.9753,3.9764,3.9621,3.962,3.9619,0,0,3.9278,3.9304,3.936,3.9385,3.9422,3.9432,3.9446,3.9479,3.9489,3.9552,3.9539,3.9578,3.965,3.9673,3.9695,3.9786,3.9773,3.9799,3.9844,3.9883,3.9893,3.9902,3.9933,3.9944,3.9806,3.9807,3.9807,0,3.9314,3.9384,3.939,3.9441,3.9467,3.9455,3.951,3.9533,3.9581,3.9598,3.9579,3.9668,3.9689,3.9764,3.9787,3.9805,3.9819,3.9794,3.9892,3.9901,3.9909,3.9938,3.995,3.9809,3.9809,3.9809,3.9808,0,3.9425,3.9474,3.9514,3.9562,3.9593,3.9646,3.9657,3.9687,3.9685,3.9697,3.976,3.9785,3.9829,3.9847,3.9845,3.9921,3.9909,3.9891,3.9855,3.9924,3.9951,3.9963,3.9813,3.9812,3.9811,3.9811,0,0,3.9527,3.9578,3.9592,3.9613,3.9654,3.969,3.9743,3.9787,3.9812,3.9845,3.9887,3.9948,3.9932,3.9956,3.9956,3.9991,4.0059,3.9968,3.9968,3.9982,4.0142,4.0155,4.0168,4.0052,4.0054,4.0056,4.0139,0,3.9612,3.9705,3.9711,3.9795,3.9839,3.9828,3.9873,3.9901,3.9913,3.9951,3.9964,4.0006,3.9982,3.9996,4.003,4.0044,4.0091,4.0038,4.0088,4.009,4.0079,4.0182,4.0196,4.0273,4.015,4.0152,4.0153,0,3.9722,3.976,3.9849,3.9882,3.9901,3.9941,3.9982,4.0019,4.005,4.0057,4.0084,4.008,4.0131,4.0095,4.0164,4.0128,4.0149,4.0159,4.0162,4.0165,4.0125,4.0186,4.0298,4.0309,4.0171,4.0169,4.0168,0,3.9786,3.9859,3.9921,3.994,3.998,4.0009,4.0027,4.0056,4.0082,4.0118,4.0134,4.0174,4.0196,4.0226,4.0232,4.0206,4.0301,4.0266,4.0306,4.0305,4.0324,4.0323,4.0439,4.0342,4.0341,4.0341,4.0341,0,3.9878,3.9932,3.995,3.9988,4.0047,4.0054,4.0112,4.0127,4.0154,4.0193,4.0186,4.0223,4.0229,4.0267,4.0272,4.0327,4.0338,4.0342,4.0343,4.0342,4.0341,4.0354,4.0348,4.0344,4.0344,4.0343,4.0342,0,3.9958,3.9973,4.0039,4.0073,4.0083,4.0125,4.0153,4.0188,4.02,4.0249,4.0261,4.0279,4.0323,4.0333,4.0384,4.0387,4.0453,4.0449,4.0443,4.0442,4.048,4.0475,4.0607,4.0624,4.0517,4.0518,4.0519,0,4.0015,4.0056,4.0095,4.0122,4.0142,4.0185,4.0212,4.0219,4.0247,4.0286,4.0316,4.036,4.0395,4.0465,4.0481,4.052,4.0516,4.0559,4.0521,4.0519,4.0514,4.0511,4.0514,4.0566,4.0567,4.0568,4.0569,0,4.0114,4.0119,4.0159,4.0202,4.0235,4.0268,4.03,4.0322,4.0333,4.0365,4.0411,4.0438,4.0491,4.0534,4.0573,4.0589,4.058,4.0581,4.0592,4.059,4.0584,4.0586,4.046,4.0577,4.0576,4.0576,4.0575,4.0575,4.0183,4.0218,4.0251,4.0296,4.0321,4.0351,4.0386,4.0402,4.0441,4.0486,4.0488,4.0537,4.0567,4.0619,4.0638,4.0675,4.0661,4.0677,4.0681,4.0684,4.0687,4.058,4.0682,4.0682,4.0682,4.0682,4.0681,0,4.0279,4.03,4.0341,4.0387,4.0421,4.0413,4.0447,4.0476,4.052,4.0549,4.0584,4.0636,4.0677,4.0697,4.0737,4.0763,4.076,4.0773,4.077,4.0774,4.0698,4.0684,4.0775,4.0775,4.0775,4.0775,4.0775,4.0775,4.0333,4.0393,4.0402,4.0474,4.0494,4.0544,4.0564,4.0591,4.0614,4.0673,4.0707,4.0721,4.0746,4.0788,4.0825,4.0829,4.0843,4.0858,4.0861,4.0789,4.0779,4.077,4.0757,4.0862,4.0862,4.0933,4.0934,4.0934]}]]